DW5678 Kavala GR current weather conditions

sailwx.info

Wind from 226

Air temperature 14.4° C
Dewpoint 4.4° C

Last reported at 2016-Feb-11 13:45 UTC.
Time now 2016-Feb-11 15:03 UTC

Location: N 40°56' E 024°24'.
View on Google Maps.

See reports from other nearby stations

  
Tides and Currents Weather Stations Pressure Air Temp Water Temp Dewpoint Dewpoint Depression Visibility Wind Speed Wind Dir Waves Ship Positions
date/time (UTC)wind fromknots sea level pressurealtimeterstation pressurevisibilityair tempwater tempwave heightnotes
2016-Feb-11 13:45 226 14.4
2016-Feb-11 13:30 229 14.4
2016-Feb-11 13:15 229 14.4
2016-Feb-11 13:00 232 14.4
2016-Feb-11 12:45 210 0 gusting 4 14.4
2016-Feb-11 12:30 222 1 gusting 5 15.0
2016-Feb-11 12:15 215 0 gusting 6 14.4
2016-Feb-11 12:00 188 2 gusting 6 16.1
2016-Feb-11 11:45 280 2 gusting 6 16.1
2016-Feb-11 11:30 042 2 gusting 8 16.1
2016-Feb-11 11:15 241 0 gusting 7 16.1
2016-Feb-11 11:00 267 2 gusting 7 15.6
2016-Feb-11 10:45 268 2 gusting 7 15.6
2016-Feb-11 10:30 228 4 gusting 8 15.6
2016-Feb-11 10:15 219 2 gusting 10 15.6
2016-Feb-11 10:00 264 2 gusting 8 15.6
2016-Feb-11 09:45 259 4 gusting 10 15.0
2016-Feb-11 09:30 252 2 gusting 10 15.0
2016-Feb-11 09:15 275 2 gusting 10 15.0
2016-Feb-11 09:00 203 1 gusting 13 14.4
2016-Feb-11 08:45 280 1 gusting 7 14.4
2016-Feb-11 08:30 196 2 gusting 6 13.3
2016-Feb-11 08:15 248 1 gusting 7 13.3
2016-Feb-11 08:00 216 2 gusting 6 12.8
2016-Feb-11 07:45 231 2 gusting 13 12.8
2016-Feb-11 07:30 161 5 gusting 11 12.8
2016-Feb-11 07:15 220 2 gusting 7 12.8
2016-Feb-11 07:00 251 5 gusting 8 12.8
2016-Feb-11 06:45 104 1 gusting 8 12.8
2016-Feb-11 06:30 156 1 gusting 7 12.2
2016-Feb-11 06:15 265 0 gusting 8 12.2
2016-Feb-11 06:00 046 0 gusting 6 11.7
2016-Feb-11 05:45 022 11.7
2016-Feb-11 05:30 097 4 gusting 10 11.7
2016-Feb-11 05:15 007 0 gusting 4 11.7
2016-Feb-11 05:00 303 1 gusting 6 12.2
2016-Feb-11 04:45 349 0 gusting 7 12.2
2016-Feb-11 04:30 011 1 gusting 6 12.2
2016-Feb-11 04:15 328 1 gusting 7 12.2
2016-Feb-11 04:00 345 2 gusting 6 12.2
2016-Feb-11 03:45 282 0 gusting 8 12.2
2016-Feb-11 03:30 241 1 gusting 6 12.2
2016-Feb-11 03:15 003 0 gusting 2 11.7
2016-Feb-11 03:00 295 0 gusting 4 11.7
2016-Feb-11 02:45 262 0 gusting 5 11.7
2016-Feb-11 02:30 333 1 gusting 8 12.2
2016-Feb-11 02:15 310 1 gusting 6 12.2
2016-Feb-11 02:00 341 1 gusting 6 11.7
2016-Feb-11 01:45 296 0 gusting 5 11.7
2016-Feb-11 01:30 065 12.8
2016-Feb-11 01:15 263 13.3
2016-Feb-11 01:00 270 1 gusting 6 13.9
2016-Feb-11 00:45 254 2 gusting 7 13.9
2016-Feb-11 00:30 248 2 gusting 7 13.9
2016-Feb-11 00:15 261 0 gusting 6 13.9
2016-Feb-11 00:00 222 13.9
2016-Feb-10 23:45 245 4 gusting 7 13.9
2016-Feb-10 23:30 286 2 gusting 8 13.3
2016-Feb-10 23:15 252 0 gusting 8 13.3
2016-Feb-10 23:00 227 5 gusting 15 13.3
2016-Feb-10 22:45 203 6 gusting 13 13.3
2016-Feb-10 22:30 215 6 gusting 13 13.3
2016-Feb-10 22:15 212 6 gusting 13 13.9
2016-Feb-10 22:00 237 7 gusting 13 13.9
2016-Feb-10 21:45 188 6 gusting 19 13.9
2016-Feb-10 21:30 200 12 gusting 20 14.4
2016-Feb-10 21:15 205 8 gusting 19 14.4
2016-Feb-10 21:00 199 9 gusting 15 13.9
2016-Feb-10 20:45 221 8 gusting 14 13.9
2016-Feb-10 20:30 203 4 gusting 10 12.8
2016-Feb-10 20:15 238 1 gusting 6 12.8
2016-Feb-10 20:00 019 1 gusting 6 12.8
2016-Feb-10 19:45 060 2 gusting 6 12.8
2016-Feb-10 19:30 355 2 gusting 6 12.8
2016-Feb-10 19:15 049 1 gusting 6 12.8
2016-Feb-10 19:00 049 4 gusting 6 12.8
2016-Feb-10 18:45 044 1 gusting 2 12.8
2016-Feb-10 18:30 065 1 gusting 6 12.8
2016-Feb-10 18:15 056 0 gusting 4 12.8
2016-Feb-10 18:00 016 2 gusting 6 12.8
2016-Feb-10 17:45 136 0 gusting 6 12.8
2016-Feb-10 17:30 015 0 gusting 4 12.8
2016-Feb-10 17:15 057 1 gusting 6 12.2
2016-Feb-10 17:00 035 2 gusting 6 12.2
2016-Feb-10 16:45 041 1 gusting 4 12.8
2016-Feb-10 16:30 044 12.8
2016-Feb-10 16:15 094 0 gusting 6 12.8
2016-Feb-10 16:00 052 1 gusting 4 12.8
2016-Feb-10 15:45 198 0 gusting 2 12.8
2016-Feb-10 15:30 085 12.8
2016-Feb-10 15:15 029 1 gusting 6 12.8
2016-Feb-10 15:00 020 1 gusting 6 12.8
2016-Feb-10 14:45 058 1 gusting 6 12.8
2016-Feb-10 14:30 040 2 gusting 6 12.8
2016-Feb-10 14:15 068 2 gusting 6 12.8
2016-Feb-10 14:00 044 1 gusting 4 12.8
2016-Feb-10 13:45 054 0 gusting 2 12.8
2016-Feb-10 13:30 038 12.8
2016-Feb-10 13:15 005 1 gusting 6 12.8
2016-Feb-10 13:00 043 0 gusting 4 12.8
2016-Feb-10 12:45 038 0 gusting 2 12.8
2016-Feb-10 12:30 055 0 gusting 2 12.8
2016-Feb-10 12:15 031 0 gusting 2 12.8
2016-Feb-10 12:00 092 0 gusting 2 12.8
2016-Feb-10 11:45 135 12.8
2016-Feb-10 11:30 098 12.8
2016-Feb-10 11:15 020 12.8
2016-Feb-10 11:00 024 0 gusting 2 12.8
2016-Feb-10 10:45 040 0 gusting 2 12.2
2016-Feb-10 10:30 013 0 gusting 4 12.2
2016-Feb-10 10:15 013 0 gusting 2 11.7
2016-Feb-10 10:00 122 0 gusting 2 11.1
2016-Feb-10 09:45 011 10.6
2016-Feb-10 09:30 326 10.6
2016-Feb-10 09:15 209 10.6
2016-Feb-10 09:00 355 10.0
2016-Feb-10 08:45 229 10.0
2016-Feb-10 08:30 115 10.0
2016-Feb-10 08:15 100 0 gusting 1 10.0
2016-Feb-10 08:00 166 10.0
2016-Feb-10 07:45 216 10.6
2016-Feb-10 07:30 049 0 gusting 2 10.6
2016-Feb-10 07:15 079 0 gusting 2 10.6
2016-Feb-10 07:00 215 10.6
2016-Feb-10 06:45 214 10.0
2016-Feb-10 06:30 214 10.0
2016-Feb-10 06:15 214 10.0
2016-Feb-10 06:00 214 10.0
2016-Feb-10 05:45 214 10.0
2016-Feb-10 05:30 214 10.0
2016-Feb-10 05:15 214 10.0
2016-Feb-10 05:00 214 10.0
2016-Feb-10 04:45 214 9.4
2016-Feb-10 04:30 214 9.4
2016-Feb-10 04:15 214 9.4
2016-Feb-10 04:00 214 9.4
2016-Feb-10 03:45 214 9.4
2016-Feb-10 03:30 214 0 gusting 2 9.4
2016-Feb-10 03:15 214 9.4
2016-Feb-10 03:00 214 9.4
2016-Feb-10 02:45 214 9.4
2016-Feb-10 02:30 214 9.4
2016-Feb-10 02:15 214 8.9
2016-Feb-10 02:00 214 8.9
2016-Feb-10 01:45 214 8.9
2016-Feb-10 01:30 214 9.4
2016-Feb-10 01:15 214 9.4
2016-Feb-10 01:00 214 9.4
2016-Feb-10 00:45 214 9.4
2016-Feb-10 00:30 214 9.4
2016-Feb-10 00:15 214 9.4
2016-Feb-10 00:00 214 9.4
2016-Feb-09 23:45 214 9.4
2016-Feb-09 23:30 214 10.0
2016-Feb-09 23:15 214 10.0
2016-Feb-09 23:00 214 10.0
2016-Feb-09 22:45 214 10.0
2016-Feb-09 22:30 214 10.0
2016-Feb-09 22:15 214 10.0
2016-Feb-09 22:00 214 10.0
2016-Feb-09 21:45 214 10.6
2016-Feb-09 21:30 214 10.6
2016-Feb-09 21:15 214 10.6
2016-Feb-09 21:00 214 10.6
2016-Feb-09 20:45 214 10.0
2016-Feb-09 20:30 213 10.0
2016-Feb-09 20:15 210 10.0
2016-Feb-09 20:00 210 10.0
2016-Feb-09 19:45 210 10.0
2016-Feb-09 19:30 210 10.0
2016-Feb-09 19:15 210 10.0
2016-Feb-09 19:00 210 10.0
2016-Feb-09 18:45 210 10.0
2016-Feb-09 18:30 210 10.0
2016-Feb-09 18:15 210 10.0
2016-Feb-09 17:45 210 10.6
2016-Feb-09 16:45 190 0 gusting 2 10.0
2016-Feb-09 16:30 257 0 gusting 2 10.0
2016-Feb-09 16:15 251 10.0
2016-Feb-09 16:00 251 10.0
2016-Feb-09 15:45 218 0 gusting 4 10.0
2016-Feb-09 15:30 223 10.0
2016-Feb-09 15:15 306 10.0